ARIRANG-5 (KOMPSAT-5)   
1 39227U 13042A   19259.78573536 -.00000113  00000-0 -37541-5 0  9995
2 39227  97.6205  82.7021 0001787  93.6597  27.3426 15.04510775333228
SL-24 R/B               
1 39228U 13042B   19259.63183502 -.00000488  00000-0 -10264-3 0  9996
2 39228  97.5102 112.8080 0457085 200.5149 157.7136 14.06258631311371